sat.trackr.live / text

‹ back to catalog

STARLINK-32487

NORAD 61963 · 2024-210E

PAYLOAD ACTIVE UNKNOWN

§ Identity

Operator
Country
US
Launch date
2024-11-14
Launch site
AFETR
Launch vehicle
Mass (kg)
RCS (m²)

Purposes: comms

External: N2YO · Heavens-Above · Gunter

§ Orbital elements

Epoch: 2026-05-24T23:04:00.875136Z

Period
94.27 min
Inclination
43.0022°
Eccentricity
0.0001737
Mean motion
15.27597487 rev/d
Perigee alt
481.8 km
Apogee alt
484.2 km
Semi-major
6,861.1 km
B*
7.1810e-4
RAAN
109.1669°
Arg perigee
273.9369°
Mean anomaly
86.1284°
Rev number
8,657

§ Raw data

STARLINK-324871 61963U 24210E   26144.96112124  .00019561  00000+0  71810-3 0  99982 61963  43.0022 109.1669 0001737 273.9369  86.1284 15.27597487 86577

JSON: /api/v1/satellites/61963 · /tle

For live sub-satellite position, see the globe view (requires WebGL).

§ Visibility from observer

Set your observer location to see the next 7 days of passes ≥ 10°. The values pass through the URL so the page stays shareable.

No JS? Fill the form by hand. The geolocation button needs JavaScript.